Flag for China Weather past 2 weeks in Taiyuan, Shanxi, China

Now
90 °F

Passing clouds.


Feels Like: 86 °F
Forecast: 67 / 85 °F
Wind: 6 mph from Southwest

Location: Taiyuan Airport

Current Time: Jul 5, 2015 at 4:42:21 PM

Latest Report: Jul 5, 2015 at 4:00 PM


Visibility: N/A

Pressure: 29.74 "Hg (27.22 "Hg at 790m altitude)

Humidity: 24%

Dew point: 48 °F

Location of TaiyuanLocation

Historic Weather in Taiyuan — Graph

°F

Taiyuan temperature yesterday

Maximum temperature yesterday: 91 °F (at 3:00 PM)
Minimum temperature yesterday: 66 °F (at 1:30 AM)
Average temperature yesterday: 78 °F

Past Weeks' High & Low Weather Summary

 TemperatureHumidityPressure
High95 °F (Jun 27, 3:30 PM)94% (Jun 29, 3:00 AM)29.92 "Hg (Jun 29, 3:00 AM)
Low59 °F (Jul 1, 2:00 AM)15% (Jul 3, 3:30 PM)29.53 "Hg (Jun 26, 2:30 PM)
Average74 °F55%29.76 "Hg
* Reported Jun 20 3:00 PM — Jul 5 3:30 PM, Taiyuan, Weather by CustomWeather, © 2015

Note: Actual official high and low records may vary slightly from our data, if they occured in-between our weather recording intervals... More about our weather records

Advertising

Taiyuan weather history for previous 24 hours

 ConditionsComfort  
Time TempWeatherWind HumidityBarometerVisibility
3:30 PM
Sun, Jul 5
90 °FPassing clouds.3 mph24%29.74 "HgN/A
3:00 PM90 °FPassing clouds.6 mph24%29.77 "HgN/A
2:30 PM88 °FPassing clouds.6 mph27%29.77 "HgN/A
2:00 PM86 °FPassing clouds.6 mph27%29.80 "HgN/A
1:30 PM88 °FPassing clouds.6 mph25%29.80 "HgN/A
1:00 PM88 °FSunny.1 mph27%29.80 "Hg10 mi
12:30 PM84 °FSunny.1 mph31%29.83 "Hg10 mi
11:30 AM81 °FPassing clouds.6 mph34%29.83 "HgN/A
11:00 AM81 °FPassing clouds.6 mph34%29.83 "HgN/A
10:30 AM79 °FSunny.1 mph37%29.83 "Hg10 mi
10:00 AM77 °FSunny.3 mph42%29.86 "Hg10 mi
9:30 AM75 °FSunny.3 mph44%29.86 "Hg10 mi
9:00 AM77 °FSunny.3 mph42%29.86 "Hg10 mi
8:30 AM75 °FSunny.6 mph44%29.86 "Hg10 mi
8:00 AM73 °FSunny.6 mph47%29.86 "Hg10 mi
7:30 AM72 °FSunny.6 mph50%29.86 "Hg10 mi
7:00 AM68 °FSunny.6 mph56%29.86 "Hg10 mi
6:30 AM66 °FSunny.3 mph60%29.86 "Hg10 mi
6:00 AM64 °FSunny.3 mph64%29.86 "Hg10 mi
5:30 AM64 °FSunny.1 mph64%29.86 "Hg10 mi
5:00 AM63 °FClear.3 mph68%29.86 "Hg10 mi
4:30 AM64 °FClear.6 mph64%29.86 "Hg10 mi
4:00 AM64 °FClear.6 mph64%29.86 "Hg10 mi
3:30 AM64 °FClear.6 mph64%29.86 "Hg10 mi
3:00 AM66 °FClear.3 mph56%29.86 "Hg10 mi
2:30 AM68 °FClear.8 mph53%29.86 "Hg10 mi
2:00 AM68 °FClear.8 mph53%29.86 "Hg10 mi
1:30 AM68 °FClear.8 mph53%29.86 "Hg10 mi
1:00 AM70 °FClear.8 mph50%29.86 "Hg10 mi
12:30 AM70 °FClear.10 mph50%29.86 "Hg10 mi
12:00 AM70 °FClear.15 mph50%29.86 "Hg10 mi
11:30 PM
Sat, Jul 4
70 °FClear.15 mph50%29.86 "Hg10 mi
11:00 PM72 °FClear.17 mph47%29.86 "Hg10 mi
10:30 PM75 °FClear.17 mph44%29.86 "Hg10 mi
10:00 PM77 °FClear.15 mph42%29.83 "Hg10 mi
9:30 PM77 °FClear.8 mph42%29.83 "Hg10 mi
9:00 PM79 °FPassing clouds.8 mph39%29.80 "HgN/A
8:30 PM79 °FPassing clouds.10 mph42%29.80 "HgN/A
8:00 PM81 °FPassing clouds.13 mph37%29.77 "HgN/A
7:30 PM86 °FScattered clouds.3 mph24%29.77 "HgN/A
7:00 PM86 °FScattered clouds.6 mph24%29.74 "HgN/A
6:30 PM88 °FScattered clouds.6 mph22%29.74 "HgN/A
6:00 PM88 °FPassing clouds.6 mph22%29.74 "HgN/A
5:30 PM90 °FPassing clouds.6 mph18%29.74 "HgN/A
5:00 PM90 °FScattered clouds.6 mph18%29.74 "HgN/A
4:30 PM91 °FScattered clouds.8 mph16%29.74 "HgN/A
4:00 PM91 °FScattered clouds.10 mph16%29.77 "HgN/A
Weather by CustomWeather, © 2015

See weather overviewHow to use our weather pages